STARLINK-32859, 62861

Orbit data source: Space-Track

STARLINK-32859, 62861 is a payload satellite owned by SpaceX/Seattle (US) in LEO that was launched on Sat, 01 Feb 2025 UTC via an FALCON 9 launch vehicle from the Air Force Western Test Range (AFWTR). Payload-class satellites include a variety of spacecraft equipped with specific instruments for various scientific and technological missions. These include communications satellites like Starlink; space stations such as the ISS; scientific satellites like the Hubble; Earth observation satellites from companies like Planet Labs, Umbra, and HawkEye 360; GPS; miniature CubeSats for education and research; and military/defense satellites.

Loading next visibility...
Identifier
62861, 2025-022H
Orbit
LEO
Country
Flag of USUS
Related business
Manufacturer
SpaceX/Seattle
Mission
Operational Commercial Communications
Bus & Motor
STARLINK V2M, Unknown motor
Mass
730 kg wet, ~700 kg dry
Launch date (UTC)
2025-02-01 (1 year ago)
Launch vehicle
FALCON 9
Launch site
Air Force Western Test Range (AFWTR)
Object type
Payload
Rocket body
Debris
Shape & HBR
Box + 2 Pan, 17.7 m
Radar Cross Section
33.884 m², Large (>1 m²)

Expand to show TLE details & history
Last TLE update: 7 hours ago

TLE from 7 hours ago
0 STARLINK-32859
1 62861U 25022H   26036.93377995  .00033786  00000-0  11480-2 0  9996
2 62861  53.1576 277.4343 0001227  74.0285 286.0851 15.30190334 57034
Epoch: 2026-02-05T22:24Z
TLE epoch observation values (Epoch: 2026-02-05T22:24:38.587Z)
Latitude
-0.00002°
Longitude
165.19461°
Altitude
475.91 km
Speed
7.629 km/s
True Right ascension
18h 29m 44s
True Declination
0° 00' 00"
Sunlit
Object was in daylight at epoch
Visualization orbit readout
Latitude
Unknown
Longitude
Unknown
Altitude
Unknown
Speed
Unknown
Apparent Right ascension
Unknown
Apparent Declination
Unknown
Sunlit
N/A
Visualization observer readout
Local Sidereal Time
07:37:32
Azimuth
Unknown
Elevation
Unknown
Doppler factor
Unknown
Orbital elements
Apogee altitude
476.342 km
Perigee altitude
474.66 km
Semi-major axis
6,853.638 km
Eccentricity
0.00012
Inclination
53.1576°
RAAN
277.4343°
Arg. of periapsis
74.0285°
True anomaly
286.07159°
Mean anomaly
286.0851°
Eccentric anomaly
286.07834°
Mean motion
3.82526 °/min
Orbital period
94.11 mins
BSTAR
0.001148
Loading maneuver chart data...
Computing Atmospheric mass density...
Loading historical data...
Loading historical data...
Loading historical data...
Loading historical data...
Loading historical data...
Loading historical data...
Loading historical data...

Documentation

Showing up to 5 results
|